Home   Weather   Patras   Past weeks

Flag for Greece Past Weather in Patras, Greece — Yesterday and Last 2 Weeks

Now
54 °F

Sunny.


Feels Like: 53 °F
Forecast: 34 / 59 °F
Wind: 5 mph from East

Location: Araxos Airport

Current Time: Dec 8, 2016 at 10:16:57 am

Latest Report: Dec 8, 2016 at 9:20 am


Visibility: 10 mi

Pressure: 30.57 "Hg

Humidity: 63%

Dew Point: 41 °F

Location of PatrasLocation

Past Weather in Patras — Graph

°F

Patras Temperature Yesterday

Maximum temperature yesterday: 61 °F (at 12:20 pm)
Minimum temperature yesterday: 50 °F (at 4:50 am)
Average temperature yesterday: 56 °F

High & Low Weather Summary for the Past Weeks

 TemperatureHumidityPressure
High66 °F (Nov 23, 1:50 pm)100% (Nov 24, 5:20 am)30.54 "Hg (Nov 24, 5:20 am)
Low34 °F (Dec 2, 5:50 am)28% (Dec 1, 1:20 pm)29.74 "Hg (Nov 28, 12:50 pm)
Average55 °F82%30.11 "Hg
* Reported Nov 23 8:20 am — Dec 8 8:50 am, Patras, Weather by CustomWeather, © 2016

Note: Actual official high and low records may vary slightly from our data, if they occured in-between our weather recording intervals... More about our weather records

Advertising

Patras Weather History for the Previous 24 Hours

Scroll right to see more
 ConditionsComfort  
Time TempWeatherWind HumidityBarometerVisibility
8:50 am
Thu, Dec 8
50 °FSunny.5 mph71%30.54 "Hg10 mi
8:20 am50 °FSunny.5 mph71%30.54 "Hg10 mi
7:50 am50 °FSunny.6 mph71%30.54 "Hg10 mi
7:20 am48 °FPassing clouds.5 mph76%30.54 "HgN/A
6:50 am50 °FClear.5 mph71%30.54 "Hg10 mi
5:50 am50 °FClear.No wind76%30.51 "Hg10 mi
3:50 am52 °FPassing clouds.No wind67%30.51 "HgN/A
1:50 am54 °FPassing clouds.No wind67%30.48 "HgN/A
12:50 am52 °FPassing clouds.No wind67%30.48 "HgN/A
11:50 pm
Wed, Dec 7
55 °FPassing clouds.5 mph59%30.45 "HgN/A
10:50 pm55 °FPassing clouds.7 mph63%30.45 "HgN/A
9:50 pm55 °FPassing clouds.No wind72%30.42 "HgN/A
8:50 pm55 °FPassing clouds.No wind67%30.42 "HgN/A
7:50 pm57 °FPassing clouds.No wind67%30.39 "HgN/A
7:20 pm57 °FPassing clouds.6 mph67%30.39 "HgN/A
6:50 pm59 °FPassing clouds.5 mph63%30.36 "HgN/A
6:20 pm59 °FPassing clouds.10 mph63%30.36 "HgN/A
5:50 pm59 °FPassing clouds.10 mph59%30.36 "HgN/A
5:20 pm59 °FPassing clouds.14 mph59%30.33 "HgN/A
4:50 pm59 °FPartly sunny.13 mph63%30.33 "HgN/A
4:20 pm59 °FPartly sunny.10 mph68%30.33 "HgN/A
3:50 pm59 °FPartly sunny.8 mph68%30.33 "HgN/A
3:20 pm59 °FPartly sunny.8 mph68%30.30 "HgN/A
2:50 pm59 °FPartly sunny.10 mph72%30.30 "HgN/A
1:50 pm59 °FPartly sunny.7 mph77%30.33 "HgN/A
1:20 pm59 °FPartly sunny.8 mph77%30.33 "HgN/A
12:50 pm59 °FPartly sunny.8 mph77%30.33 "HgN/A
12:20 pm61 °FBroken clouds.7 mph72%30.33 "HgN/A
11:50 am59 °FBroken clouds.9 mph77%30.33 "HgN/A
11:20 am59 °FBroken clouds.7 mph82%30.36 "HgN/A
10:50 am57 °FBroken clouds.6 mph94%30.36 "HgN/A
10:20 am57 °FBroken clouds.6 mph94%30.33 "HgN/A
Weather by CustomWeather, © 2016

See weather overviewHow to use our weather pages